Location: Seattle
(47.6064°N, 122.3308°W)
Time: 06:52:02
(UTC-07:00)

Tiros 1 - Pass Details

Date: 31 July 2021
Orbit: 630 x 663 km, 48.4° (Epoch: 25 September)

Event Time Altitude Azimuth Distance (km) Brightness Sun altitude
Rises 01:06:34 0° 286° (WNW) 2,959 10.8 -24.2°
Reaches altitude 10° 01:09:02 10° 279° (W) 2,040 9.8 -24.2°
Enters shadow 01:10:55 22° 265° (W) 1,409 8.8 -24.2°
